Weather History for Klawock, AK

Change the Weather History Date:

Friday, December 7, 2012

  Actual Average Record
Temperature  
Mean Temperature 30 °F -  
Max Temperature 34 °F 39 °F 57 °F (2005)
Min Temperature 26 °F 31 °F 21 °F (2004)
Degree Days  
Heating Degree Days 35    
Moisture  
Dew Point 29 °F    
Average Humidity 94    
Maximum Humidity 100    
Minimum Humidity 86    
Precipitation  
Precipitation 0.02 in - - ()
Sea Level Pressure  
Sea Level Pressure 29.88 in    
Wind  
Wind Speed 0 mph (NNE)    
Max Wind Speed 6 mph    
Max Gust Speed -    
Visibility 4 miles    
Events Fog , Snow    
Averages and records for this station are not official NWS values.
T = Trace of Precipitation, MM = Missing Value Source: NWS Daily Summary

Daily Weather History Graph

Daily Weather History Graph

Search for Another Location

Airport:

Trip Planner

Search our weather history database for the weather conditions in past years. The results will help you decide how hot, cold, wet, or windy it might be!

Date:

Astronomy

Dec. 07, 2012 Rise Set
Actual Time 8:06 AM AKST 3:21 PM AKST
Civil Twilight 7:20 AM AKST 4:07 PM AKST
Nautical Twilight 6:32 AM AKST 4:55 PM AKST
Astronomical Twilight 5:48 AM AKST 5:39 PM AKST
Moon 12:34 AM AKST (12/7) 12:15 PM AKST (12/7)
Length of Visible Light 8h 46m
Length of Day
7h 14m
Last Quarter, 37% of the Moon is Illuminated
Dec 7
Last Quarter
Dec 12
New
Dec 19
First Quarter
Dec 28
Full
Jan 4
Last Quarter

Hourly Weather History & Observations

Time (AKST) Temp. Windchill Dew Point Humidity Pressure Visibility Wind Dir Wind Speed Gust Speed Precip Events Conditions
12:53 AM 33.1 °F - 30.9 °F 92% 29.68 in 10.0 mi Calm Calm - N/A   Scattered Clouds
1:04 AM 33.8 °F - 30.2 °F 87% 29.67 in 10.0 mi Calm Calm - N/A   Mostly Cloudy
1:28 AM 32.0 °F - 30.2 °F 93% 29.68 in 10.0 mi Calm Calm - N/A   Scattered Clouds
1:48 AM 30.2 °F - 30.2 °F 100% 29.69 in 1.8 mi Calm Calm - N/A   Partly Cloudy
1:53 AM 30.9 °F - 30.0 °F 96% 29.69 in 1.0 mi Calm Calm - N/A   Scattered Clouds
2:00 AM 30.2 °F - 30.2 °F 100% 29.69 in 2.0 mi Calm Calm - N/A   Mostly Cloudy
2:08 AM 32.0 °F - 30.2 °F 93% 29.70 in 5.0 mi Calm Calm - N/A   Mostly Cloudy
2:16 AM 32.0 °F - 30.2 °F 93% 29.70 in 2.5 mi Calm Calm - 0.00 in Snow Light Snow
2:20 AM 32.0 °F - 30.2 °F 93% 29.70 in 1.5 mi Calm Calm - 0.00 in Snow Light Snow
3:01 AM 32.0 °F - 30.2 °F 93% 29.71 in 2.5 mi Calm Calm - 0.00 in Snow Light Snow
3:09 AM 32.0 °F - 30.2 °F 93% 29.71 in 8.0 mi Calm Calm - 0.00 in Snow Light Snow
3:23 AM 30.2 °F 26.7 °F 30.2 °F 100% 29.72 in 10.0 mi NE 3.5 mph - 0.00 in   Mostly Cloudy
3:53 AM 32.0 °F - 32.0 °F 100% 29.73 in 6.0 mi Calm Calm - 0.00 in Snow Light Snow
4:04 AM 32.0 °F - 30.2 °F 93% 29.74 in 2.5 mi Calm Calm - 0.00 in Snow Light Snow
4:12 AM 32.0 °F - 32.0 °F 100% 29.73 in 1.5 mi Calm Calm - 0.00 in Snow Light Snow
4:17 AM 32.0 °F 27.5 °F 30.2 °F 93% 29.74 in 3.0 mi Variable 4.6 mph - 0.00 in Snow Light Snow
4:49 AM 32.0 °F - 30.2 °F 93% 29.74 in 10.0 mi Calm Calm - 0.00 in   Scattered Clouds
4:53 AM 32.0 °F - 30.0 °F 92% 29.74 in 10.0 mi Calm Calm - 0.00 in   Partly Cloudy
5:53 AM 32.0 °F - 30.0 °F 92% 29.76 in 10.0 mi Calm Calm - N/A   Mostly Cloudy
6:39 AM 30.2 °F - 30.2 °F 100% 29.77 in 2.0 mi Calm Calm - 0.00 in Snow Light Snow
6:53 AM 32.0 °F - 30.9 °F 96% 29.78 in 3.0 mi Calm Calm - 0.00 in Snow Light Snow
7:53 AM 32.0 °F - 30.9 °F 96% 29.79 in 2.5 mi Calm Calm - 0.00 in Snow Light Snow
8:02 AM 32.0 °F - 30.2 °F 93% 29.79 in 1.5 mi Calm Calm - 0.00 in Snow Light Snow
8:24 AM 32.0 °F - 32.0 °F 100% 29.81 in 1.2 mi Calm Calm - 0.00 in Snow Light Snow
8:35 AM 32.0 °F - 30.2 °F 93% 29.81 in 0.8 mi Calm Calm - 0.00 in Snow Light Snow
8:44 AM 32.0 °F - 30.2 °F 93% 29.82 in 0.5 mi Calm Calm - 0.00 in Fog , Snow Snow
8:53 AM 32.0 °F - 32.0 °F 100% 29.82 in 0.2 mi Calm Calm - 0.00 in Fog , Snow Snow
9:18 AM 32.0 °F - 30.2 °F 93% 29.83 in 0.8 mi Calm Calm - 0.00 in Snow Light Snow
9:28 AM 32.0 °F - 30.2 °F 93% 29.83 in 1.0 mi Calm Calm - 0.00 in Snow Light Snow
9:41 AM 32.0 °F - 30.2 °F 93% 29.84 in 1.0 mi Calm Calm - 0.00 in Snow Light Snow
9:53 AM 32.0 °F - 32.0 °F 100% 29.85 in 1.8 mi Calm Calm - 0.00 in Snow Light Snow
10:12 AM 33.8 °F - 32.0 °F 93% 29.86 in 3.0 mi Calm Calm - 0.00 in Snow Light Snow
10:53 AM 33.1 °F - 32.0 °F 96% 29.87 in 6.0 mi Calm Calm - 0.00 in Snow Light Snow
11:06 AM 33.8 °F - 32.0 °F 93% 29.87 in 2.0 mi Calm Calm - 0.00 in Snow Light Snow
11:32 AM 33.8 °F - 33.8 °F 100% 29.88 in 5.0 mi Calm Calm - 0.00 in Snow Light Snow
11:53 AM 34.0 °F - 33.1 °F 96% 29.89 in 10.0 mi Calm Calm - 0.00 in   Overcast
12:11 PM 33.8 °F - 30.2 °F 87% 29.89 in 10.0 mi Calm Calm - N/A   Overcast
12:19 PM 33.8 °F - 32.0 °F 93% 29.90 in 10.0 mi Calm Calm - N/A   Overcast
12:53 PM 32.0 °F - 30.9 °F 96% 29.91 in 10.0 mi Calm Calm - N/A   Overcast
1:01 PM 33.8 °F - 30.2 °F 87% 29.90 in 10.0 mi Calm Calm - 0.01 in   Mostly Cloudy
1:42 PM 32.0 °F - 30.2 °F 93% 29.91 in 1.2 mi Calm Calm - 0.01 in   Partly Cloudy
1:51 PM 30.2 °F - 30.2 °F 100% 29.91 in 0.8 mi Calm Calm - 0.01 in   Mostly Cloudy
1:53 PM 30.9 °F - 30.0 °F 96% 29.92 in 0.5 mi Calm Calm - 0.01 in Fog Light Freezing Fog
2:01 PM 32.0 °F - 30.2 °F 93% 29.92 in 0.5 mi Calm Calm - 0.01 in Fog Fog
2:17 PM 32.0 °F - 30.2 °F 93% 29.92 in 2.0 mi Calm Calm - 0.01 in   Overcast
2:25 PM 32.0 °F - 30.2 °F 93% 29.92 in 10.0 mi Calm Calm - 0.01 in   Overcast
2:49 PM 32.0 °F 28.7 °F 30.2 °F 93% 29.93 in 1.8 mi North 3.5 mph - 0.01 in   Overcast
2:53 PM 32.0 °F 26.4 °F 30.0 °F 92% 29.94 in 0.8 mi North 5.8 mph - 0.01 in   Overcast
3:04 PM 32.0 °F 26.4 °F 30.2 °F 93% 29.93 in 1.5 mi North 5.8 mph - N/A   Overcast
3:07 PM 32.0 °F 27.5 °F 30.2 °F 93% 29.93 in 3.0 mi North 4.6 mph - N/A   Overcast
3:13 PM 32.0 °F 27.5 °F 30.2 °F 93% 29.94 in 1.5 mi NNE 4.6 mph - N/A   Overcast
3:15 PM 32.0 °F 27.5 °F 30.2 °F 93% 29.94 in 0.8 mi NNE 4.6 mph - N/A   Overcast
3:46 PM 30.2 °F 25.4 °F 30.2 °F 100% 29.95 in 1.0 mi North 4.6 mph - N/A   Mist
3:53 PM 30.9 °F - 30.0 °F 96% 29.96 in 1.2 mi Calm Calm - N/A   Overcast
4:18 PM 30.2 °F - 30.2 °F 100% 29.97 in 2.0 mi Calm Calm - N/A   Overcast
4:39 PM 30.2 °F 26.7 °F 28.4 °F 93% 29.98 in 1.8 mi North 3.5 mph - N/A   Overcast
4:47 PM 30.2 °F - 28.4 °F 93% 29.98 in 0.8 mi Calm Calm - N/A   Overcast
4:53 PM 30.0 °F - 28.9 °F 96% 29.98 in 0.5 mi Calm Calm - N/A Fog Light Freezing Fog
5:53 PM 28.9 °F - 28.0 °F 96% 30.01 in 0.5 mi Calm Calm - N/A Fog Light Freezing Fog
6:29 PM 28.4 °F - 26.6 °F 93% 30.02 in 1.0 mi Calm Calm - N/A   Mist
6:37 PM 28.4 °F - 26.6 °F 93% 30.03 in 2.0 mi Calm Calm - N/A   Overcast
6:45 PM 28.4 °F - 26.6 °F 93% 30.03 in 1.0 mi Calm Calm - N/A   Mist
6:53 PM 28.9 °F - 28.0 °F 96% 30.04 in 0.2 mi Calm Calm - N/A Fog Light Freezing Fog
7:44 PM 26.6 °F - 26.6 °F 100% 30.04 in 1.5 mi Calm Calm - N/A   Mostly Cloudy
7:53 PM 27.0 °F - 25.0 °F 92% 30.04 in 5.0 mi Calm Calm - N/A   Mostly Cloudy
8:02 PM 28.4 °F - 24.8 °F 86% 30.05 in 1.8 mi Calm Calm - N/A   Mostly Cloudy
8:06 PM 28.4 °F - 24.8 °F 86% 30.05 in 3.0 mi Calm Calm - N/A   Mostly Cloudy
8:33 PM 28.4 °F - 24.8 °F 86% 30.06 in 10.0 mi Calm Calm - N/A   Partly Cloudy
8:53 PM 28.0 °F - 25.0 °F 88% 30.07 in 3.0 mi Calm Calm - N/A   Clear
9:00 PM 28.4 °F - 24.8 °F 86% 30.07 in 2.5 mi Calm Calm - N/A   Scattered Clouds
9:02 PM 28.4 °F - 24.8 °F 86% 30.07 in 4.0 mi Calm Calm - N/A   Mostly Cloudy
9:16 PM 28.4 °F - 24.8 °F 86% 30.08 in 4.0 mi Calm Calm - N/A   Scattered Clouds
9:53 PM 27.0 °F - 25.0 °F 92% 30.09 in 8.0 mi Calm Calm - N/A   Clear
10:53 PM 27.0 °F - 24.1 °F 89% 30.09 in 8.0 mi Calm Calm - N/A   Clear
11:53 PM 27.0 °F - 25.0 °F 92% 30.10 in 10.0 mi Calm Calm - N/A   Clear